When you browse on this site, cookies collect data to enhance your experience and personalize the content and advertising you see.
Visit our Privacy Policy to learn more. By continuing to use the site, you agree to this use of cookies and data.
  • In United Kingdom
  • List of Countries
  • For 7 days
  • Water Temperature
  • Satellite Maps
  • Weather Map
  • Weather Widgets
  • user-avatar
    Login

    Hourly Weather Alajuela

    Today, 25 June, Tuesday

    Time Temperature Precipitation Wind Pressure Humidity
    00:00 +22°C° 0.8 mm 1 mps 680 mmHg 92%
    01:00 +21°C° 0 mm 1 mps 680 mmHg 92%
    02:00 +21°C° 0 mm 1 mps 679 mmHg 93%
    03:00 +21°C° 0 mm 1 mps 679 mmHg 93%
    04:00 +21°C° 0 mm 1 mps 679 mmHg 93%
    05:00 +21°C° 0 mm 1 mps 680 mmHg 94%
    06:00 +21°C° 0 mm 1 mps 680 mmHg 94%
    07:00 +23°C° 0 mm 1 mps 681 mmHg 88%
    08:00 +25°C° 0 mm 1 mps 681 mmHg 83%
    09:00 +26°C° 0 mm 1 mps 682 mmHg 77%
    10:00 +27°C° 0.9 mm 1 mps 682 mmHg 77%
    11:00 +27°C° 0.9 mm 1 mps 682 mmHg 78%
    12:00 +28°C° 0.9 mm 1 mps 682 mmHg 78%
    13:00 +27°C° 1.7 mm 1 mps 681 mmHg 81%
    14:00 +27°C° 1.7 mm 1 mps 680 mmHg 83%
    15:00 +26°C° 1.7 mm 1 mps 679 mmHg 86%
    16:00 +25°C° 0.8 mm 1 mps 679 mmHg 90%
    17:00 +24°C° 0.8 mm 1 mps 679 mmHg 93%
    18:00 +21°C° 0.8 mm 0 mps 679 mmHg 97%
    19:00 +21°C° 0.1 mm 0 mps 680 mmHg 97%
    20:00 +21°C° 0.1 mm 0 mps 680 mmHg 96%
    21:00 +21°C° 0.1 mm 0 mps 680 mmHg 96%
    22:00 +22°C° 0.1 mm 1 mps 680 mmHg 96%
    23:00 +22°C° 0.1 mm 1 mps 680 mmHg 96%

    Tomorrow, 26 June, Wednesday

    Time Temperature Precipitation Wind Pressure Humidity
    00:00 +22°C° 0.1 mm 1 mps 680 mmHg 96%
    01:00 +22°C° 0 mm 1 mps 680 mmHg 96%
    02:00 +22°C° 0 mm 1 mps 679 mmHg 95%
    03:00 +21°C° 0 mm 1 mps 679 mmHg 95%
    04:00 +22°C° 0 mm 1 mps 679 mmHg 95%
    05:00 +22°C° 0 mm 1 mps 679 mmHg 95%
    06:00 +22°C° 0 mm 1 mps 679 mmHg 94%
    07:00 +24°C° 0 mm 1 mps 680 mmHg 87%
    08:00 +25°C° 0 mm 1 mps 680 mmHg 80%
    09:00 +27°C° 0 mm 1 mps 681 mmHg 73%
    10:00 +27°C° 1.1 mm 1 mps 681 mmHg 75%
    11:00 +27°C° 1.1 mm 1 mps 681 mmHg 76%
    12:00 +28°C° 1.1 mm 1 mps 680 mmHg 77%
    13:00 +27°C° 2.3 mm 1 mps 680 mmHg 79%
    14:00 +27°C° 2.3 mm 1 mps 679 mmHg 81%
    15:00 +26°C° 2.3 mm 1 mps 679 mmHg 83%
    16:00 +25°C° 1 mm 1 mps 679 mmHg 87%
    17:00 +24°C° 1 mm 1 mps 679 mmHg 90%
    18:00 +23°C° 1 mm 1 mps 679 mmHg 93%
    19:00 +22°C° 0 mm 1 mps 679 mmHg 93%
    20:00 +22°C° 0 mm 1 mps 679 mmHg 93%
    21:00 +20°C° 0 mm 2 mps 680 mmHg 93%
    22:00 +20°C° 0 mm 2 mps 679 mmHg 93%
    23:00 +20°C° 0 mm 2 mps 679 mmHg 93%

    Day after tomorrow, 27 June, Thursday

    Time Temperature Precipitation Wind Pressure Humidity
    00:00 +20°C° 0 mm 2 mps 679 mmHg 93%
    01:00 +20°C° 0 mm 2 mps 679 mmHg 93%
    02:00 +20°C° 0 mm 2 mps 678 mmHg 93%
    03:00 +20°C° 0 mm 2 mps 678 mmHg 93%
    04:00 +20°C° 0 mm 2 mps 678 mmHg 93%
    05:00 +20°C° 0 mm 2 mps 678 mmHg 92%
    06:00 +20°C° 0 mm 2 mps 678 mmHg 92%
    07:00 +23°C° 0 mm 2 mps 679 mmHg 84%
    08:00 +25°C° 0 mm 2 mps 680 mmHg 77%
    09:00 +26°C° 0 mm 2 mps 681 mmHg 69%
    10:00 +27°C° 0.1 mm 2 mps 680 mmHg 70%
    11:00 +27°C° 0.1 mm 2 mps 680 mmHg 72%
    12:00 +27°C° 0.1 mm 2 mps 680 mmHg 73%
    13:00 +26°C° 1.9 mm 2 mps 680 mmHg 78%
    14:00 +25°C° 1.9 mm 1 mps 679 mmHg 83%
    15:00 +25°C° 1.9 mm 1 mps 679 mmHg 89%
    16:00 +24°C° 0.8 mm 1 mps 678 mmHg 90%
    17:00 +23°C° 0.8 mm 1 mps 678 mmHg 91%
    18:00 +22°C° 0.8 mm 1 mps 678 mmHg 92%
    19:00 +22°C° 0 mm 1 mps 679 mmHg 92%
    20:00 +21°C° 0 mm 1 mps 679 mmHg 92%
    21:00 +20°C° 0 mm 2 mps 680 mmHg 92%
    22:00 +20°C° 0 mm 2 mps 679 mmHg 92%
    23:00 +20°C° 0 mm 2 mps 679 mmHg 93%

    28 June, Friday

    Time Temperature Precipitation Wind Pressure Humidity
    00:00 +19°C° 0 mm 2 mps 679 mmHg 93%
    01:00 +19°C° 0.1 mm 2 mps 679 mmHg 93%
    02:00 +20°C° 0.1 mm 2 mps 678 mmHg 94%
    03:00 +20°C° 0.1 mm 2 mps 678 mmHg 94%
    04:00 +20°C° 0 mm 2 mps 678 mmHg 94%
    05:00 +20°C° 0 mm 2 mps 679 mmHg 93%
    06:00 +20°C° 0 mm 2 mps 679 mmHg 93%
    07:00 +21°C° 0 mm 2 mps 679 mmHg 87%
    08:00 +24°C° 0 mm 2 mps 680 mmHg 82%
    09:00 +25°C° 0 mm 2 mps 681 mmHg 76%
    10:00 +25°C° 0.2 mm 2 mps 681 mmHg 74%
    11:00 +26°C° 0.2 mm 2 mps 680 mmHg 71%
    12:00 +26°C° 0.2 mm 2 mps 680 mmHg 69%
    13:00 +26°C° 0.3 mm 2 mps 680 mmHg 67%
    14:00 +27°C° 0.3 mm 2 mps 679 mmHg 66%
    15:00 +27°C° 0.3 mm 2 mps 679 mmHg 64%
    16:00 +25°C° 0.2 mm 2 mps 679 mmHg 72%
    17:00 +24°C° 0.2 mm 1 mps 679 mmHg 80%
    18:00 +22°C° 0.2 mm 1 mps 679 mmHg 88%
    19:00 +22°C° 0 mm 1 mps 679 mmHg 89%
    20:00 +21°C° 0 mm 1 mps 680 mmHg 90%
    21:00 +21°C° 0 mm 1 mps 680 mmHg 91%
    22:00 +21°C° 0 mm 1 mps 680 mmHg 92%
    23:00 +21°C° 0 mm 1 mps 679 mmHg 92%

    29 June, Saturday

    Time Temperature Precipitation Wind Pressure Humidity
    00:00 +21°C° 0 mm 1 mps 679 mmHg 93%
    01:00 +21°C° 0 mm 1 mps 679 mmHg 92%
    02:00 +21°C° 0 mm 1 mps 679 mmHg 92%
    03:00 +21°C° 0 mm 1 mps 678 mmHg 92%
    04:00 +21°C° 0 mm 1 mps 679 mmHg 92%
    05:00 +21°C° 0 mm 1 mps 679 mmHg 91%
    06:00 +21°C° 0 mm 1 mps 679 mmHg 91%
    07:00 +23°C° 0 mm 1 mps 680 mmHg 83%
    08:00 +25°C° 0 mm 1 mps 681 mmHg 76%
    09:00 +27°C° 0 mm 1 mps 682 mmHg 68%
    10:00 +27°C° 0.8 mm 1 mps 681 mmHg 73%
    11:00 +27°C° 0.8 mm 1 mps 681 mmHg 78%
    12:00 +26°C° 0.8 mm 1 mps 681 mmHg 83%
    13:00 +26°C° 1.5 mm 1 mps 680 mmHg 85%
    14:00 +25°C° 1.5 mm 1 mps 679 mmHg 87%
    15:00 +25°C° 1.5 mm 1 mps 679 mmHg 89%
    16:00 +24°C° 1.6 mm 1 mps 679 mmHg 91%
    17:00 +23°C° 1.6 mm 1 mps 679 mmHg 94%
    18:00 +20°C° 1.6 mm 0 mps 679 mmHg 96%
    19:00 +22°C° 0.9 mm 1 mps 680 mmHg 95%
    20:00 +22°C° 0.9 mm 1 mps 680 mmHg 94%
    21:00 +22°C° 0.9 mm 1 mps 680 mmHg 92%
    22:00 +22°C° 0.2 mm 1 mps 680 mmHg 91%
    23:00 +21°C° 0.2 mm 1 mps 680 mmHg 89%

    30 June, Sunday

    Time Temperature Precipitation Wind Pressure Humidity
    00:00 +20°C° 0.2 mm 2 mps 679 mmHg 88%
    01:00 +21°C° 0 mm 1 mps 679 mmHg 89%
    02:00 +21°C° 0 mm 1 mps 679 mmHg 89%
    03:00 +21°C° 0 mm 1 mps 678 mmHg 90%
    04:00 +21°C° 0 mm 1 mps 679 mmHg 90%
    05:00 +21°C° 0 mm 1 mps 679 mmHg 91%
    06:00 +21°C° 0 mm 1 mps 679 mmHg 91%
    07:00 +23°C° 0 mm 1 mps 680 mmHg 85%
    08:00 +25°C° 0 mm 1 mps 680 mmHg 78%
    09:00 +27°C° 0 mm 1 mps 681 mmHg 71%
    10:00 +28°C° 0.3 mm 1 mps 681 mmHg 72%
    11:00 +28°C° 0.3 mm 1 mps 680 mmHg 73%
    12:00 +28°C° 0.3 mm 2 mps 680 mmHg 74%
    13:00 +27°C° 1.6 mm 1 mps 680 mmHg 79%
    14:00 +27°C° 1.6 mm 1 mps 679 mmHg 83%
    15:00 +26°C° 1.6 mm 1 mps 678 mmHg 87%
    16:00 +25°C° 1 mm 1 mps 679 mmHg 90%
    17:00 +24°C° 1 mm 1 mps 679 mmHg 93%
    18:00 +21°C° 1 mm 0 mps 679 mmHg 97%
    19:00 +23°C° 0 mm 1 mps 679 mmHg 96%
    20:00 +22°C° 0 mm 1 mps 680 mmHg 96%
    21:00 +22°C° 0 mm 1 mps 680 mmHg 95%
    22:00 +22°C° 0 mm 1 mps 680 mmHg 95%
    23:00 +21°C° 0 mm 1 mps 680 mmHg 95%
    Show more